Regional Weather Roundup
Issued by NWS

Home | Current Version | Previous Version | Text Only | Print | Product List | Glossary Off
Versions: 1 2 3 4 5 6 7 8 9 10 11 12 13 14 15 16 17 18 19 20 21 22 23 24 25 26 27 28 29 30 31 32 33 34 35 36 37 38 39 40 41 42 43 44 45 46 47 48 49 50

000
ASUS43 KMKX 281521
RWRWI

WISCONSIN REGIONAL WEATHER ROUNDUP
NATIONAL WEATHER SERVICE MILWAUKEE/SULLIVAN WI
1000 AM CDT WED SEP 28 2016

NOTE: "FAIR" INDICATES FEW OR NO CLOUDS BELOW 12,000 FEET WITH NO
SIGNIFICANT WEATHER AND/OR OBSTRUCTIONS TO VISIBILITY.

WIZ001-002-006>008-014>016-023>028-281600-
NORTHWEST WISCONSIN

CITY           SKY/WX    TMP DP  RH WIND       PRES   REMARKS
SUPERIOR ARPT  CLOUDY    56  49  76 NE9       30.16R
ASHLAND        CLOUDY    55  51  86 NE16      30.13R
HAYWARD        CLOUDY    54  50  86 N15       30.11R
SIREN          CLOUDY    54  49  83 N9        30.13R
CUMBERLAND     CLOUDY    52  48  87 N12G20    30.10R
RICE LAKE      CLOUDY    55  50  85 N10       30.10R
CHETEK         NOT AVBL
LADYSMITH      PTSUNNY   57  49  75 N17G25    30.08R
EAU CLAIRE     CLOUDY    56  52  86 N13       30.05R
MENOMONIE      CLOUDY    55  55 100 NW13      30.06R
NEW RICHMOND   CLOUDY    55  48  76 N8G16     30.11R
OSCEOLA        CLOUDY    55  49  80 N9        30.15R
$$

WIZ003>005-009-010-017-018-281600-
NORTH CENTRAL WISCONSIN

CITY           SKY/WX    TMP DP  RH WIND       PRES   REMARKS
MANITOWISH WTR NOT AVBL
ARBOR VITAE    PTSUNNY   55  49  83 NE13      30.06R
WOODRUFF       PTSUNNY   55  49  83 NE13      30.06R
RHINELANDER    CLOUDY    53  50  89 E10       30.06R
EAGLE RIVER    PTSUNNY   53  49  87 NE9       30.05R
LAND O LAKES   PTSUNNY   53  48  83 NE7G17    30.08R
PHILLIPS       CLOUDY    53  49  88 NE13G21   30.05R
TOMAHAWK       CLOUDY    52  50  92 NE8G17    30.04R
MEDFORD        CLOUDY    54  54 100 N17G23    30.01R
MERRILL        CLOUDY    55  50  85 E12G21    30.02R
$$

WIZ029-030-035-036-043>047-281600-
CENTRAL WISCONSIN

CITY           SKY/WX    TMP DP  RH WIND       PRES   REMARKS
WAUSAU         CLOUDY    56  49  77 NE10      29.99R
MOSINEE        PTSUNNY   54  52  94 NE13      30.00R
MARSHFIELD     CLOUDY    56  49  77 N8        29.99R
STEVENS POINT  CLOUDY    55  49  81 NE13      29.99R
WAUPACA        CLOUDY    59  51  75 N9G16     29.97R
WAUTOMA        CLOUDY    55  51  86 N10G17    29.97R
WISC RAPIDS    PTSUNNY   56  51  84 N10       29.99R
CAMP DOUGLAS   PTSUNNY   55  52  88 N12       29.98R
$$

WIZ011>013-019>022-031-037>040-048>050-281600-
NORTHEAST WISCONSIN

CITY           SKY/WX    TMP DP  RH WIND       PRES   REMARKS
ANTIGO         PTSUNNY   54  49  84 NE14      30.01R
SHAWANO        CLOUDY    56  52  88 NE12      29.98R
OCONTO         NOT AVBL
STURGEON BAY   CLOUDY    58  52  80 NE12      29.97R
GREEN BAY      CLOUDY    57  55  93 NE13G20   29.96R
MANITOWOC      LGT RAIN  57  52  83 N6        29.93R
APPLETON       CLOUDY    54  52  94 N16       29.93R
CLINTONVILLE   NOT AVBL
OSHKOSH        CLOUDY    55  49  80 N10       29.94R
$$

WIZ032>034-041-042-053>061-281600-
SOUTHWEST WISCONSIN

CITY           SKY/WX    TMP DP  RH WIND       PRES   REMARKS
LA CROSSE      CLOUDY    57  52  83 N12       30.01R
SPARTA         CLOUDY    53  51  92 N5        30.01R
VIROQUA        CLOUDY    52  52 100 N9G17     30.00R
BOSCOBEL       CLOUDY    57  51  80 N10       29.99R
PRAIRIE DU CHI CLOUDY    55  48  76 NW13      30.00R
PLATTEVILLE    CLOUDY    53  52  95 N13       29.97R
$$

WIZ056-057-062-063-064-067-068-281600-
SOUTH CENTRAL WISCONSIN

CITY           SKY/WX    TMP DP  RH WIND       PRES   REMARKS
REEDSBURG      NOT AVBL
BARABOO/DELLS  CLOUDY    53  50  89 N6        29.96R
LONE ROCK      CLOUDY    55  50  83 NW8       29.98R
MINERAL POINT  CLOUDY    54  52  94 N7        29.96R
MADISON        CLOUDY    53  50  89 N8        29.94R
MIDDLETON      CLOUDY    54  54  98 N7        29.95R
WATERTOWN      CLOUDY    52  51  97 N9        29.92  FOG
MONROE         CLOUDY    52  48  87 N9G16     29.94R
JANESVILLE     CLOUDY    54  52  94 N13       29.92R
$$

WIZ051-052-058>065-066-070>072-281600-
SOUTHEAST WISCONSIN

CITY           SKY/WX    TMP DP  RH WIND       PRES   REMARKS
MILWAUKEE      PTSUNNY   55  49  80 N10       29.91R
WAUKESHA       NOT AVBL
MILWAUKEE/TIMM CLOUDY    54  46  76 N9        29.91R
RACINE         MOSUNNY   54  49  83 N13       29.92R
BURLINGTON     CLOUDY    52  47  82 N6        29.91R
KENOSHA        PTSUNNY   56  48  74 N10G18    29.90R
FOND DU LAC    CLOUDY    55  50  83 N12       29.94R
SHEBOYGAN      LGT RAIN  55  51  86 N9        29.92R
WEST BEND      CLOUDY    52  48  87 N6        29.92R
JUNEAU         CLOUDY    53  49  85 N13       29.94R
$$

LSZ147-162-281600-
LAKE SUPERIOR

STATION/POSITION TIME  TEMP    WIND        PRES    WAVE
                       AIR SEA DIR/SP/G            HT/PER
                 (UTC) (F)     (DEG/KT/KT) (MB)    (FT/S)
W MID LAKE BUOY  1450   55 51   40/ 14/ 17 1019.8R   5/ 7
DEVILS ISLAND    1500   53      10/ 18/ 19 1021.3R
SAXON HARBOR     1400   56      30/ 17/ 21 1018.6R
$$

LMZ867-665-643>646-281600-
LAKE MICHIGAN

STATION/POSITION TIME  TEMP    WIND        PRES    WAVE
                       AIR SEA DIR/SP/G            HT/PER
                 (UTC) (F)     (DEG/KT/KT) (MB)    (FT/S)
CHAMBERS ISLAND  1400   58      40/ 12/ 15 1013.9R
N MID LAKE BUOY  1450   58 66  100/ 17/ 21 1014.7R   3/ 4
NORTHPORT PIER   1420   56      70/ 14/ 24 1014.9R
SISTER BAY       1438   54      30/  6/  8   N/A
KEWAUNEE LAKESHO 1400   54      40/  6/ 11 1012.4R
SHEBOYGAN LAKESH 1500   54      10/ 16/ 18 1013.0R
PORT WASHINGTON  1440   55     350/  5/  8 1013.5R
ATWATER BUOY     1500   53 53  360/ 10/ 14 1013.0R
MILWAUKEE LAKESH 1410   53     350/  7/  9   N/A
S MID LAKE BUOY  1450   58 69   70/ 10/ 12 1011.4R   1
KENOSHA   LAKESH 1500   52      20/ 14/ 15 1012.5R
$$

TC  - TEMPERATURE IN CELSIUS
VSB - VISIBILITY IN STATUTE MILES
WCI - WIND CHILL INDEX
HX  - HEAT INDEX





USA.gov is the U.S. government's official web portal to all federal, state and local government web resources and services.